Seattle Boeing, WA

3:15 PM PST on December 14, 2019 (GMT -0800)
Boeing Field-King County International

Weather History for KBFI - November, 2019

Change the Weather History Date:

Friday, November 15, 2019

  Actual Average Record
Temperature  
Mean Temperature 54 °F -  
Max Temperature 59 °F 51 °F 61 °F (2001)
Min Temperature 48 °F 40 °F 6 °F (1955)
Degree Days  
Heating Degree Days 12    
Growing Degree Days 4 (Base 50)    
Moisture  
Dew Point 47 °F    
Average Humidity 81    
Maximum Humidity 89    
Minimum Humidity 72    
Precipitation  
Precipitation 0.08 in - - ()
Sea Level Pressure  
Sea Level Pressure 30.09 in    
Wind  
Wind Speed 8 mph ()    
Max Wind Speed 16 mph    
Max Gust Speed 26 mph    
Visibility 9.6 miles    
Events Rain    
Averages and records for this station are not official NWS values.
T = Trace of Precipitation, MM = Missing Value Source: Averaged Metar Reports

Daily Weather History Graph

Daily Weather History Graph

Search for Another Location

Airport or City:

Astronomy

Nov. 15, 2019 Rise Set
Actual Time 7:13 AM PST 4:33 PM PST
Civil Twilight 6:40 AM PST 5:06 PM PST
Nautical Twilight 6:03 AM PST 5:43 PM PST
Astronomical Twilight 5:26 AM PST 6:20 PM PST
Moon 7:05 PM PST (11/15) 10:23 AM PST (11/15)
Length of Visible Light 10h 26m
Length of Day
9h 19m
Waning Gibbous, 89% of the Moon is Illuminated
Nov 15
Waning Gibbous
Nov 19
Last Quarter
Nov 26
New
Dec 3
First Quarter
Dec 11
Full

Hourly Weather History & Observations

Time (PST) Temp. Dew Point Humidity Pressure Visibility Wind Dir Wind Speed Gust Speed Precip Events Conditions
12:53 AM 48.9 °F 44.1 °F 83% 30.00 in 10.0 mi SSE 10.4 mph - N/A   Mostly Cloudy
2:53 AM 48.9 °F 43.0 °F 80% 29.99 in 10.0 mi SSE 9.2 mph - N/A   Mostly Cloudy
3:53 AM 50.0 °F 43.0 °F 77% 29.98 in 10.0 mi ESE 5.8 mph - N/A Rain Light Rain
4:53 AM 48.0 °F 44.1 °F 86% 29.97 in 6.0 mi South 3.5 mph - 0.04 in Rain Light Rain
5:34 AM 48.0 °F 45.0 °F 89% 29.98 in 6.0 mi South 4.6 mph - 0.04 in Rain Light Rain
5:53 AM 48.0 °F 45.0 °F 89% 29.99 in 7.0 mi SSE 5.8 mph - 0.04 in Rain Light Rain
6:53 AM 48.0 °F 45.0 °F 89% 30.01 in 10.0 mi SE 5.8 mph - 0.00 in   Mostly Cloudy
7:53 AM 48.0 °F 45.0 °F 89% 30.01 in 10.0 mi SE 9.2 mph - N/A   Overcast
8:53 AM 50.0 °F 46.9 °F 89% 30.01 in 10.0 mi South 11.5 mph - N/A   Mostly Cloudy
9:53 AM 54.0 °F 48.9 °F 83% 30.04 in 10.0 mi South 13.8 mph - N/A   Mostly Cloudy
10:04 AM 54.0 °F 50.0 °F 86% 30.03 in 10.0 mi South 12.7 mph - N/A   Mostly Cloudy
10:53 AM 55.9 °F 50.0 °F 80% 30.06 in 10.0 mi South 16.1 mph 23.0 mph N/A   Mostly Cloudy
11:53 AM 55.9 °F 50.0 °F 80% 30.06 in 10.0 mi South 16.1 mph 26.5 mph N/A   Mostly Cloudy
12:53 PM 57.9 °F 50.0 °F 75% 30.08 in 10.0 mi SSW 12.7 mph 25.3 mph N/A   Mostly Cloudy
1:40 PM 59.0 °F 50.0 °F 72% 30.10 in 10.0 mi SW 11.5 mph - N/A   Mostly Cloudy
1:53 PM 57.9 °F 48.9 °F 72% 30.10 in 10.0 mi SSW 10.4 mph - N/A   Mostly Cloudy
2:53 PM 57.9 °F 50.0 °F 75% 30.12 in 10.0 mi South 10.4 mph - N/A   Mostly Cloudy
3:53 PM 57.0 °F 48.0 °F 72% 30.13 in 10.0 mi SSW 9.2 mph 18.4 mph N/A   Scattered Clouds
4:53 PM 55.0 °F 48.9 °F 80% 30.16 in 10.0 mi South 8.1 mph - N/A   Mostly Cloudy
6:53 PM 55.0 °F 48.0 °F 77% 30.21 in 10.0 mi Variable 4.6 mph - N/A   Overcast
7:53 PM 54.0 °F 48.0 °F 80% 30.22 in 10.0 mi SSW 4.6 mph - N/A   Overcast
8:53 PM 54.0 °F 48.0 °F 80% 30.25 in 10.0 mi South 8.1 mph - N/A   Overcast
9:53 PM 53.1 °F 48.0 °F 83% 30.26 in 10.0 mi South 3.5 mph - N/A   Overcast
10:53 PM 52.0 °F 46.9 °F 83% 30.27 in 10.0 mi SSE 4.6 mph - N/A   Mostly Cloudy
11:53 PM 52.0 °F 48.0 °F 86% 30.28 in 10.0 mi SE 5.8 mph - N/A   Overcast